SKYSAT-C5 (41772 NORAD) Tracking and Keplerian Element Data

This shows tracking and keplerian element data for the satellite.

Feedback or suggestion? Click here.




ElementValue
Catalog41772
NameSKYSAT-C5
Epoch Orbit14942
Epoch Day146.20449809
Epoch Year2019
RAAN217.2049
Inclination97.3998
Eccentricity0.0001708
Argument of Perigee97.9365
Mean Anonmoly325.4985
Mean Motion15.23352656
Decay Rate3.03E-06
L11 41772U 16058C 19146.20449809 .00000303 00000-0 15664-4 0 9990
L22 41772 97.3998 217.2049 0001708 97.9365 325.4985 15.23352656149422

Live tracking and technical data element details for SKYSAT-C5 (NORAD 41772). SKYSAT-C5 can be tracked NOW for your location showing map with azimuth and elevation plus other details from your city location.

Track the satellite on the map from your city or location and see movement details for azimuth, elevation, latitude, longitude, range, height, and movement on the map or in text.







IsCatalogInMostPopularTable: catalog: 41772, numindb: 194
Update: records affected: 1



GetName: 41772 SKYSAT-C5

Hit Count: updated at: Sun, 26 May 2019 19:07:45 GMT